軌道要素
Epoch 2023 Feb. 25.0 TT = JDT 2460000.5
T 2021 Sept. 12.56442 TT Rudenko
q 2.2964444 (2000.0) P Q
n 0.13982844 Peri. 202.43587 +0.96841743 +0.21853350
a 3.6762556 Node 144.26355 -0.18594114 +0.95374435
e 0.3753306 Incl. 11.86089 -0.16611315 +0.20643360
P 7.05
>From 2610 observations 2007 Apr. 17-2023 Feb. 16, mean residual 0".6.
Nongravitational parameters A1 = +0.14, A2 = +0.0060.
|